When you browse on this site, cookies collect data to enhance your experience and personalize the content and advertising you see.
Visit our Privacy Policy to learn more. By continuing to use the site, you agree to this use of cookies and data.

Stündliche Wetter Stavys'ke

Heute, 20 September, Sonntag

Zeit Temperatur Niederschläge Wind Luftdruck Luftfeuchtigkeit
00:00 +9°C° 0 mm 3 m/S 755 mmHg 79%
01:00 +9°C° 0 mm 3 m/S 755 mmHg 84%
02:00 +9°C° 0 mm 2 m/S 755 mmHg 92%
03:00 +9°C° 0 mm 2 m/S 755 mmHg 93%
04:00 +8°C° 0 mm 2 m/S 755 mmHg 94%
05:00 +8°C° 0 mm 2 m/S 755 mmHg 95%
06:00 +10°C° 0 mm 2 m/S 755 mmHg 89%
07:00 +12°C° 0 mm 2 m/S 756 mmHg 83%
08:00 +13°C° 0 mm 2 m/S 757 mmHg 75%
09:00 +13°C° 0 mm 3 m/S 757 mmHg 65%
10:00 +16°C° 0 mm 3 m/S 757 mmHg 56%
11:00 +17°C° 0 mm 3 m/S 757 mmHg 47%
12:00 +18°C° 0 mm 3 m/S 757 mmHg 44%
13:00 +18°C° 0 mm 3 m/S 757 mmHg 42%
14:00 +19°C° 0 mm 2 m/S 757 mmHg 39%
15:00 +18°C° 0 mm 2 m/S 756 mmHg 43%
16:00 +17°C° 0 mm 2 m/S 756 mmHg 47%
17:00 +18°C° 0 mm 1 m/S 756 mmHg 51%
18:00 +15°C° 0 mm 1 m/S 757 mmHg 55%
19:00 +13°C° 0 mm 1 m/S 757 mmHg 59%
20:00 +12°C° 0 mm 1 m/S 757 mmHg 63%
21:00 +11°C° 0 mm 1 m/S 757 mmHg 65%
22:00 +11°C° 0 mm 1 m/S 757 mmHg 67%
23:00 +10°C° 0 mm 1 m/S 758 mmHg 69%

Morgen, 21 September, Montag

Zeit Temperatur Niederschläge Wind Luftdruck Luftfeuchtigkeit
00:00 +10°C° 0 mm 1 m/S 758 mmHg 70%
01:00 +8°C° 0 mm 2 m/S 758 mmHg 71%
02:00 +8°C° 0 mm 2 m/S 758 mmHg 72%
03:00 +8°C° 0 mm 2 m/S 758 mmHg 73%
04:00 +8°C° 0 mm 2 m/S 757 mmHg 74%
05:00 +7°C° 0 mm 2 m/S 757 mmHg 75%
06:00 +9°C° 0 mm 2 m/S 758 mmHg 70%
07:00 +10°C° 0 mm 2 m/S 758 mmHg 65%
08:00 +13°C° 0 mm 2 m/S 758 mmHg 60%
09:00 +15°C° 0 mm 2 m/S 758 mmHg 54%
10:00 +16°C° 0 mm 2 m/S 758 mmHg 48%
11:00 +18°C° 0 mm 2 m/S 758 mmHg 42%
12:00 +19°C° 0 mm 2 m/S 757 mmHg 40%
13:00 +20°C° 0 mm 2 m/S 757 mmHg 38%
14:00 +21°C° 0 mm 2 m/S 757 mmHg 36%
15:00 +20°C° 0 mm 2 m/S 757 mmHg 41%
16:00 +19°C° 0 mm 2 m/S 756 mmHg 46%
17:00 +19°C° 0 mm 1 m/S 756 mmHg 50%
18:00 +16°C° 0 mm 1 m/S 756 mmHg 53%
19:00 +15°C° 0 mm 1 m/S 756 mmHg 57%
20:00 +12°C° 0 mm 0 m/S 756 mmHg 60%
21:00 +13°C° 0 mm 1 m/S 756 mmHg 61%
22:00 +13°C° 0 mm 1 m/S 757 mmHg 61%
23:00 +12°C° 0 mm 1 m/S 757 mmHg 61%

übermorgen, 22 September, Dienstag

Zeit Temperatur Niederschläge Wind Luftdruck Luftfeuchtigkeit
00:00 +12°C° 0 mm 2 m/S 757 mmHg 62%
01:00 +12°C° 0 mm 2 m/S 756 mmHg 62%
02:00 +12°C° 0 mm 2 m/S 756 mmHg 62%
03:00 +10°C° 0 mm 2 m/S 756 mmHg 62%
04:00 +10°C° 0 mm 2 m/S 756 mmHg 62%
05:00 +10°C° 0 mm 2 m/S 756 mmHg 62%
06:00 +11°C° 0 mm 3 m/S 756 mmHg 58%
07:00 +13°C° 0 mm 3 m/S 756 mmHg 54%
08:00 +14°C° 0 mm 3 m/S 756 mmHg 49%
09:00 +17°C° 0 mm 3 m/S 756 mmHg 45%
10:00 +20°C° 0 mm 3 m/S 756 mmHg 40%
11:00 +22°C° 0 mm 4 m/S 756 mmHg 36%
12:00 +23°C° 0 mm 4 m/S 756 mmHg 34%
13:00 +23°C° 0 mm 4 m/S 756 mmHg 33%
14:00 +25°C° 0 mm 4 m/S 755 mmHg 32%
15:00 +24°C° 0 mm 3 m/S 755 mmHg 35%
16:00 +23°C° 0 mm 2 m/S 754 mmHg 39%
17:00 +21°C° 0 mm 2 m/S 754 mmHg 43%
18:00 +19°C° 0 mm 2 m/S 754 mmHg 44%
19:00 +18°C° 0 mm 2 m/S 754 mmHg 45%
20:00 +16°C° 0 mm 2 m/S 754 mmHg 45%
21:00 +16°C° 0 mm 2 m/S 754 mmHg 46%
22:00 +14°C° 0 mm 3 m/S 754 mmHg 47%
23:00 +14°C° 0 mm 3 m/S 754 mmHg 47%

23 September, Mittwoch

Zeit Temperatur Niederschläge Wind Luftdruck Luftfeuchtigkeit
00:00 +13°C° 0 mm 3 m/S 754 mmHg 48%
01:00 +13°C° 0 mm 3 m/S 754 mmHg 48%
02:00 +12°C° 0 mm 3 m/S 754 mmHg 49%
03:00 +13°C° 0 mm 2 m/S 754 mmHg 48%
04:00 +12°C° 0 mm 2 m/S 754 mmHg 47%
05:00 +12°C° 0 mm 2 m/S 754 mmHg 46%
06:00 +13°C° 0 mm 2 m/S 754 mmHg 44%
07:00 +14°C° 0 mm 2 m/S 754 mmHg 43%
08:00 +16°C° 0 mm 2 m/S 754 mmHg 41%
09:00 +18°C° 0 mm 3 m/S 754 mmHg 37%
10:00 +20°C° 0 mm 3 m/S 754 mmHg 32%
11:00 +24°C° 0 mm 3 m/S 753 mmHg 28%
12:00 +24°C° 0 mm 3 m/S 753 mmHg 27%
13:00 +25°C° 0 mm 3 m/S 753 mmHg 25%
14:00 +26°C° 0 mm 3 m/S 752 mmHg 23%
15:00 +24°C° 0 mm 3 m/S 752 mmHg 27%
16:00 +23°C° 0 mm 2 m/S 752 mmHg 30%
17:00 +21°C° 0 mm 2 m/S 751 mmHg 34%
18:00 +19°C° 0 mm 2 m/S 751 mmHg 33%
19:00 +18°C° 0 mm 2 m/S 751 mmHg 33%
20:00 +16°C° 0 mm 3 m/S 751 mmHg 32%
21:00 +16°C° 0 mm 3 m/S 751 mmHg 32%
22:00 +16°C° 0 mm 3 m/S 751 mmHg 31%
23:00 +14°C° 0 mm 3 m/S 751 mmHg 30%

24 September, Donnerstag

Zeit Temperatur Niederschläge Wind Luftdruck Luftfeuchtigkeit
00:00 +14°C° 0 mm 3 m/S 751 mmHg 31%
01:00 +13°C° 0 mm 3 m/S 751 mmHg 31%
02:00 +13°C° 0 mm 3 m/S 751 mmHg 32%
03:00 +12°C° 0 mm 3 m/S 751 mmHg 33%
04:00 +12°C° 0 mm 3 m/S 751 mmHg 33%
05:00 +12°C° 0 mm 3 m/S 751 mmHg 34%
06:00 +13°C° 0 mm 3 m/S 751 mmHg 34%
07:00 +14°C° 0 mm 3 m/S 751 mmHg 34%
08:00 +16°C° 0 mm 3 m/S 751 mmHg 35%
09:00 +19°C° 0 mm 3 m/S 751 mmHg 33%
10:00 +21°C° 0 mm 3 m/S 751 mmHg 31%
11:00 +24°C° 0 mm 3 m/S 751 mmHg 29%
12:00 +25°C° 0 mm 3 m/S 751 mmHg 29%
13:00 +26°C° 0 mm 3 m/S 751 mmHg 28%
14:00 +27°C° 0 mm 3 m/S 751 mmHg 28%
15:00 +26°C° 0 mm 2 m/S 751 mmHg 32%
16:00 +24°C° 0 mm 2 m/S 751 mmHg 37%
17:00 +23°C° 0 mm 1 m/S 750 mmHg 41%
18:00 +22°C° 0 mm 1 m/S 751 mmHg 43%
19:00 +21°C° 0 mm 1 m/S 751 mmHg 45%
20:00 +18°C° 0 mm 2 m/S 751 mmHg 46%
21:00 +18°C° 0 mm 2 m/S 751 mmHg 46%
22:00 +17°C° 0 mm 2 m/S 751 mmHg 46%
23:00 +17°C° 0 mm 2 m/S 751 mmHg 45%

25 September, Freitag

Zeit Temperatur Niederschläge Wind Luftdruck Luftfeuchtigkeit
00:00 +16°C° 0 mm 2 m/S 751 mmHg 45%
01:00 +16°C° 0 mm 2 m/S 751 mmHg 44%
02:00 +16°C° 0 mm 2 m/S 751 mmHg 44%
03:00 +15°C° 0 mm 2 m/S 751 mmHg 46%
04:00 +15°C° 0 mm 2 m/S 751 mmHg 48%
05:00 +15°C° 0 mm 2 m/S 751 mmHg 50%
06:00 +16°C° 0 mm 2 m/S 751 mmHg 49%
07:00 +17°C° 0 mm 2 m/S 751 mmHg 49%
08:00 +18°C° 0 mm 2 m/S 751 mmHg 48%
09:00 +21°C° 0 mm 3 m/S 751 mmHg 44%
10:00 +24°C° 0 mm 3 m/S 751 mmHg 39%
11:00 +26°C° 0 mm 3 m/S 751 mmHg 35%
12:00 +27°C° 0 mm 3 m/S 750 mmHg 33%
13:00 +28°C° 0 mm 4 m/S 750 mmHg 30%
14:00 +28°C° 0 mm 4 m/S 749 mmHg 28%
15:00 +27°C° 0 mm 3 m/S 749 mmHg 33%
16:00 +26°C° 0 mm 3 m/S 749 mmHg 37%
17:00 +25°C° 0 mm 3 m/S 748 mmHg 41%
18:00 +22°C° 0 mm 3 m/S 748 mmHg 44%
19:00 +21°C° 0 mm 3 m/S 748 mmHg 46%
20:00 +20°C° 0 mm 4 m/S 748 mmHg 48%
21:00 +19°C° 0 mm 4 m/S 748 mmHg 47%
22:00 +19°C° 0 mm 4 m/S 747 mmHg 47%
23:00 +19°C° 0 mm 4 m/S 747 mmHg 46%
Mehr zeigen